Theta_e
313 320 328 333 340 338 337 338 337 333 333 334 333 334 334 333 338 341 343 347 347 348 349 350 350 349 349 348 347 348 346 344 342 340 339 337 336 335 335 333 337 334 334
312 316 325 328 337 339 338 337 336 335 334 333 332 333 331 333 336 332 334 339 344 346 349 349 349 348 348 347 347 345 344 341 341 339 338 336 334 334 332 332 332 331 331
310 311 317 323 330 335 338 338 336 334 335 334 331 331 331 332 332 331 333 334 338 344 347 347 348 348 347 346 345 344 342 339 338 337 336 336 333 332 332 331 330 330 330
308 310 312 318 324 329 333 337 336 333 334 335 332 332 331 333 333 331 332 334 336 339 344 346 346 348 347 346 345 343 340 338 335 334 334 333 331 330 330 330 330 329 329
307 309 310 316 320 325 328 332 337 336 334 334 334 334 333 332 331 330 331 332 336 337 339 345 345 346 346 345 344 342 338 335 333 333 332 331 330 329 329 329 328 327 328
307 309 311 315 317 320 324 328 331 335 335 335 335 334 334 334 331 331 331 334 336 339 338 340 344 344 344 344 343 341 336 332 331 331 329 328 328 328 327 326 327 329 326
306 309 310 313 315 317 321 324 327 330 334 333 334 334 333 333 332 331 331 332 335 337 338 339 343 342 341 342 342 339 334 331 330 328 328 327 327 328 330 328 329 327 325
306 308 310 311 313 315 317 320 323 327 331 331 331 332 331 330 330 330 330 332 334 336 338 340 341 342 340 341 340 336 331 327 326 326 326 327 329 329 329 329 327 325 325
307 307 309 310 312 313 315 318 320 324 328 328 329 329 328 328 327 327 326 329 331 331 334 337 339 341 341 340 336 331 326 325 326 326 325 326 328 328 329 328 324 324 322
305 306 307 309 311 313 315 317 317 321 325 325 325 324 324 325 324 321 320 325 326 328 330 333 333 335 341 338 331 326 323 323 326 326 324 326 328 328 330 326 324 324 323
303 305 306 306 309 311 314 315 318 320 323 324 325 322 322 322 320 319 317 318 321 323 327 329 330 326 325 325 324 322 322 322 323 322 325 327 329 329 328 325 323 322 323
300 302 304 305 307 309 311 314 317 319 321 325 325 325 323 320 317 315 315 313 313 313 320 323 323 322 319 318 318 320 320 321 320 324 327 328 328 329 328 324 322 323 321
299 301 303 304 306 308 310 314 314 318 320 323 325 323 323 319 317 318 316 316 316 313 317 319 316 316 317 317 316 317 318 319 324 327 324 326 328 329 326 324 324 323 319
296 299 302 304 305 307 311 313 312 316 318 322 322 322 321 320 316 315 314 313 315 312 312 314 315 314 314 315 314 314 316 319 323 326 321 320 328 328 327 324 325 321 319
293 296 300 303 304 306 309 312 313 315 316 317 318 317 318 316 314 314 313 311 312 311 311 312 312 311 310 312 312 312 311 314 317 319 321 317 324 327 326 326 324 321 320
292 293 297 300 303 305 307 310 310 315 313 313 312 313 314 312 312 311 310 310 310 312 312 310 309 308 308 308 307 307 307 309 312 314 315 319 316 321 325 325 324 323 320
291 292 293 295 302 304 306 307 309 311 310 309 309 310 309 311 310 309 309 309 309 311 310 309 307 307 305 304 302 303 304 306 307 308 307 309 309 311 322 324 323 321 319
290 290 292 292 296 302 305 306 308 308 307 306 306 306 306 307 310 308 308 307 309 310 309 308 306 303 301 300 298 298 299 301 302 304 302 302 303 303 311 317 319 320 321
290 290 290 291 292 295 301 307 307 306 305 305 303 302 302 304 305 307 307 306 307 308 308 307 304 303 300 298 298 297 297 297 300 301 300 298 298 301 302 305 310 313 316
290 290 290 291 292 293 295 298 299 302 300 301 302 300 300 300 302 303 306 307 306 306 306 304 302 300 299 298 297 295 296 296 297 298 300 300 299 299 300 301 305 307 310
290 289 290 292 293 293 293 292 294 293 294 295 296 298 297 298 299 299 300 304 306 305 305 302 300 298 297 298 297 296 295 295 295 295 298 297 298 300 300 300 303 307 307
289 289 290 292 293 293 293 293 293 293 292 292 293 294 295 295 297 297 297 299 302 304 304 302 301 298 298 299 297 296 292 294 294 294 296 296 296 298 299 300 301 303 305
288 288 289 292 293 293 293 294 295 295 294 291 291 291 293 293 294 294 295 296 300 301 302 303 301 299 296 298 300 297 291 291 293 294 293 295 296 296 297 298 299 300 301
288 289 290 292 293 292 292 292 291 290 288 289 289 291 291 292 292 293 292 294 297 299 299 301 302 301 299 296 300 301 300 298 292 290 293 293 294 296 297 297 298 298 299
289 290 290 292 291 291 291 290 289 288 289 289 288 289 290 290 291 291 293 292 294 298 298 299 300 301 301 299 299 298 299 298 297 295 291 291 293 294 296 297 297 298 297
289 290 291 291 289 289 290 290 289 289 288 288 288 287 288 289 290 290 291 294 293 294 297 298 298 299 299 300 300 299 297 296 296 295 293 291 293 294 295 295 296 296 297
Wind_Speed
17 20 26 27 20 17 17 18 20 19 18 19 21 24 26 28 35 22 17 14 15 15 15 14 14 14 15 15 13 11 15 14 14 13 11 10 9 9 9 8 6 10 11
18 19 24 27 29 21 18 17 17 18 14 18 19 16 15 21 23 24 27 26 19 16 16 14 12 13 14 13 11 12 15 14 14 12 10 11 9 9 9 9 8 10 10
18 19 19 28 27 25 25 18 14 15 16 14 11 9 11 13 13 21 23 23 18 19 19 18 16 14 14 14 14 16 14 14 13 11 6 6 9 9 10 10 10 10 11
17 16 17 25 26 25 25 23 14 10 13 14 10 10 7 16 18 17 20 23 17 14 19 20 19 16 15 16 17 16 15 15 13 12 7 7 9 8 9 9 10 10 10
17 16 17 24 25 26 24 23 23 18 12 13 12 13 10 8 13 13 20 18 18 14 14 18 21 17 18 18 18 18 16 15 12 9 7 7 7 8 9 10 9 9 10
16 17 18 24 24 25 25 23 22 21 20 19 17 14 13 14 10 14 16 25 23 19 14 17 19 19 15 17 18 19 16 15 12 8 7 7 7 11 9 8 10 11 12
17 17 18 22 24 24 24 23 22 21 19 19 19 18 19 17 16 15 15 21 23 23 15 13 15 15 15 18 19 20 17 14 9 8 8 7 10 11 12 11 12 12 13
17 17 18 19 23 22 23 23 23 20 18 18 18 17 18 16 15 16 19 20 20 23 16 13 13 20 22 19 19 19 16 11 9 9 8 7 12 12 11 13 13 12 11
16 16 17 18 20 21 21 21 23 20 19 17 17 16 15 15 12 15 17 19 19 17 18 16 11 18 23 22 22 19 16 11 9 7 8 7 12 12 12 14 13 11 10
17 17 18 19 18 18 16 18 21 19 17 13 13 13 13 12 12 12 14 15 15 14 16 13 14 15 25 27 21 15 15 8 9 9 6 8 13 12 14 14 13 11 10
17 19 18 18 19 18 16 15 16 17 15 10 9 8 9 6 7 7 8 11 13 13 13 12 10 18 23 20 17 13 8 3 7 5 5 11 14 13 14 14 13 10 11
20 19 18 19 18 18 13 15 14 15 12 10 9 10 5 6 6 5 5 7 9 11 11 11 11 11 11 7 6 7 2 2 5 5 6 9 13 14 16 14 12 12 11
16 15 19 18 17 18 15 11 8 7 9 8 10 8 7 5 5 5 4 5 5 6 4 5 6 5 7 6 6 3 3 3 3 4 5 5 12 15 15 14 14 12 10
18 17 18 18 17 17 11 10 10 10 10 10 8 8 7 5 5 4 4 5 5 4 5 5 3 5 5 7 6 5 6 4 3 3 4 5 10 15 16 14 15 12 10
17 17 17 17 16 15 14 12 10 10 10 12 12 11 8 7 6 5 4 4 4 3 4 4 4 4 5 5 5 7 7 6 6 3 4 13 2 12 14 15 15 14 10
16 17 16 16 16 15 14 15 11 11 12 10 11 13 11 7 6 6 5 3 3 3 1 3 4 4 4 5 6 6 7 4 8 6 5 8 18 13 7 11 12 13 12
13 14 16 16 17 15 15 13 10 11 11 11 11 13 16 9 7 6 5 3 3 3 3 2 4 4 4 5 7 6 5 6 6 7 6 5 7 14 11 17 16 6 9
14 16 15 15 18 18 15 12 9 10 10 10 12 12 17 15 11 6 5 4 3 1 2 2 3 3 5 5 4 3 4 5 6 7 6 5 5 5 10 10 15 16 13
13 15 16 18 19 18 16 11 12 15 12 11 10 11 17 17 16 11 5 3 4 2 1 3 3 2 3 4 3 4 5 5 5 5 6 5 6 5 3 8 15 14 12
13 14 16 15 18 16 12 11 11 11 12 12 12 11 16 13 17 13 10 6 3 2 1 1 6 5 3 4 5 4 4 4 4 4 3 4 3 4 4 5 4 6 12
12 13 15 15 16 12 12 11 11 11 11 12 12 17 14 14 16 15 11 11 5 4 3 2 2 6 3 2 2 2 3 4 4 3 2 3 3 3 3 2 1 1 4
11 12 12 14 15 12 9 8 6 8 7 7 10 13 16 14 14 14 14 13 11 5 4 3 3 2 2 2 2 1 0 1 2 3 3 2 3 2 2 2 3 3 1
8 9 9 11 13 13 15 10 10 7 7 11 11 11 13 16 13 15 15 13 12 8 6 3 4 5 3 3 3 2 2 3 2 1 0 1 1 1 1 1 2 3 2
7 6 8 10 14 12 13 12 14 10 10 10 11 11 11 15 16 14 14 15 14 8 9 7 2 4 4 4 3 3 3 2 3 3 2 2 3 3 3 2 2 2 3
5 6 7 10 13 13 13 12 10 11 9 8 9 14 15 14 16 16 16 13 14 10 8 9 7 3 4 3 3 2 3 2 2 3 3 4 3 3 3 3 2 2 2
5 6 7 11 11 12 12 12 13 13 13 11 13 11 11 11 11 16 17 13 12 13 11 8 7 7 5 2 4 6 4 3 2 2 1 2 3 4 4 3 4 3 2
Wind_Direction
342 340 337 341 349 348 343 356 8 12 28 32 27 4 3 357 359 338 307 257 230 222 225 220 200 186 184 177 165 151 138 126 114 110 107 105 105 101 98 97 120 98 96
335 342 339 346 350 349 335 340 351 352 25 39 23 17 3 7 6 340 330 343 264 235 232 219 208 190 185 178 156 145 129 121 117 117 113 106 103 103 102 100 94 103 105
344 344 344 346 349 349 355 340 355 340 356 43 39 358 358 352 355 346 338 337 324 266 237 224 213 195 186 167 154 143 136 129 124 120 155 126 109 109 107 107 112 115 107
345 344 347 346 347 347 352 356 353 346 349 4 360 15 340 349 346 348 338 336 333 315 260 234 217 197 182 163 159 146 147 139 134 145 151 124 118 117 113 121 117 114 118
350 349 351 349 350 347 349 351 5 359 349 342 343 343 338 350 335 342 341 317 334 323 301 261 228 206 175 167 160 148 151 143 147 185 130 132 119 117 122 119 117 105 93
351 351 350 352 353 350 348 351 357 354 354 360 347 343 338 337 344 330 321 339 334 337 302 294 238 209 187 170 163 151 153 149 174 140 128 117 122 130 129 125 112 110 104
355 353 350 354 352 352 348 350 353 352 346 353 347 357 347 345 344 336 340 327 327 336 310 273 251 198 203 188 170 152 154 160 159 144 136 142 123 126 128 129 119 112 100
357 353 352 354 353 352 351 349 349 348 348 352 346 348 352 353 354 349 351 344 336 347 350 308 269 199 200 188 164 145 149 165 157 144 143 148 120 126 136 132 115 108 111
5 359 357 355 355 352 352 350 351 349 348 360 355 357 346 342 354 355 358 357 359 5 1 2 302 214 194 173 153 148 143 172 153 143 151 142 128 140 138 127 117 113 107
8 5 0 355 356 355 348 345 343 349 341 357 354 356 345 348 3 6 6 359 357 358 15 23 26 30 220 153 139 139 129 158 155 146 160 121 145 151 139 127 119 120 119
6 2 2 359 355 352 349 349 344 345 340 339 347 5 352 4 0 351 353 352 3 2 17 24 57 71 75 68 86 93 99 194 146 148 165 143 143 147 136 132 127 132 132
4 1 359 358 356 352 351 350 346 347 349 334 343 349 357 0 351 346 337 343 350 358 9 19 31 62 88 90 83 49 10 171 134 159 120 158 150 147 138 135 135 135 124
1 3 1 357 357 356 350 349 350 341 341 331 342 348 343 351 353 348 338 350 340 355 347 345 25 12 61 81 91 108 104 6 125 125 84 191 159 155 143 143 142 138 126
8 5 3 -0 359 359 354 356 343 342 350 350 340 347 342 343 353 349 351 354 344 12 358 359 8 31 57 86 94 78 81 77 63 92 63 350 168 155 155 154 144 137 132
13 8 5 2 3 359 1 1 355 343 358 357 1 357 349 344 338 340 350 6 359 3 2 14 11 29 32 48 77 83 65 74 58 62 55 39 85 166 161 155 155 144 138
11 11 8 7 7 5 5 5 353 357 1 5 5 354 1 347 336 344 336 356 14 8 9 30 17 17 30 53 47 73 86 63 78 47 40 53 49 14 156 157 152 147 140
10 10 13 10 10 15 12 8 357 9 10 5 3 360 356 350 341 339 334 336 1 6 24 66 46 23 44 50 50 25 44 64 78 74 45 27 32 27 73 95 89 101 139
11 13 18 19 15 15 17 16 16 13 19 5 4 359 358 353 347 340 327 334 332 345 39 48 55 40 50 37 52 37 22 60 66 80 66 40 30 19 36 66 94 76 44
15 16 24 24 22 16 16 18 20 21 19 21 12 7 357 354 352 343 329 324 318 307 138 119 69 77 103 98 74 41 34 32 38 66 76 48 24 33 52 35 50 64 57
21 21 28 32 27 20 19 20 22 22 18 10 7 9 5 354 353 350 342 317 309 288 283 129 124 80 63 71 75 55 35 43 38 27 58 99 71 33 34 39 17 56 59
24 28 34 30 24 25 23 14 14 12 14 11 6 3 356 0 356 350 349 339 316 285 249 159 99 117 111 134 133 105 74 45 30 43 19 52 47 37 60 71 56 125 103
23 24 30 27 21 20 18 13 11 7 10 17 10 5 0 355 356 354 346 339 338 305 271 181 188 133 101 201 119 96 111 102 86 20 347 28 55 36 49 57 83 87 124
22 19 24 22 19 15 12 9 6 0 0 360 10 8 1 1 354 359 346 348 338 340 321 249 191 164 152 207 177 139 139 220 127 159 288 325 265 197 110 76 82 88 92
7 14 23 20 19 13 18 12 11 6 358 354 350 353 4 6 357 6 353 346 338 342 349 332 240 191 153 183 186 186 208 170 195 195 204 228 248 216 203 170 176 128 111
359 15 12 9 20 18 18 14 5 5 359 353 355 351 3 4 4 3 357 348 343 345 348 345 346 302 200 185 195 185 235 188 207 247 185 177 215 226 217 199 197 173 136
31 25 18 11 25 17 16 14 11 6 0 358 359 355 353 358 358 0 355 356 348 351 340 347 344 351 352 288 196 223 243 266 213 192 173 147 207 180 206 196 200 187 178